Vertical_Velocity
1 1 1 2 1 1 2 1 2 1 -1 -1 -1 -1 -1 -1 -2 -2 -2 -1 0 -3
-1 1 2 1 1 1 1 1 1 -0 -0 -0 -1 -1 -0 -1 -3 -2 -1 -0 -0 -1
-0 1 2 1 1 1 1 0 0 0 -0 -0 -1 -0 -1 -1 -1 -0 -1 -1 -1 -4
1 -0 1 1 1 1 0 -0 -0 0 -0 -1 -0 -0 -1 0 -1 -1 -1 -3 -1 -3
2 2 1 0 1 0 1 -0 -1 -0 -1 -1 -2 -1 1 -1 -0 -0 -2 -1 -2 -3
2 2 2 1 1 0 -0 -0 -1 -1 -0 -1 -1 -2 -0 1 -1 -2 -3 -1 -1 -1
2 2 1 2 1 -1 0 -1 -1 -0 -1 -0 -1 -1 -2 -1 -1 -1 -3 -4 -3 -3
1 2 4 2 1 -1 -1 -0 -1 -0 0 -0 -1 -2 -3 -0 1 -1 -0 -1 -2 -1
2 3 2 1 -0 0 -0 0 0 -0 -1 -2 -1 -2 -1 -2 1 0 -0 1 0 -2
1 1 1 1 -0 0 1 -0 -1 -0 -1 -2 -1 -1 -2 -1 -0 -2 -2 -2 -2 -3
1 0 0 1 1 0 -0 -1 -2 -1 0 -2 0 -1 -1 -0 -2 -2 -2 -1 -6 -5
-1 1 2 1 0 -0 -2 -2 -1 -1 -0 1 -3 -1 -3 -1 -0 -1 -2 -1 -2 -8
3 2 1 -0 -1 -2 -1 0 -0 -2 1 -1 2 0 -0 -0 -3 -2 5 2 -0 1
1 1 -1 -1 -1 -1 1 2 2 -1 -1 -1 -1 -0 -5 -3 -1 -3 2 -0 -2 -1
Height
5719 5720 5721 5721 5721 5721 5721 5719 5717 5714 5711 5708 5704 5699 5694 5690 5686 5681 5676 5670 5664 5657
5712 5713 5713 5713 5713 5713 5712 5710 5707 5704 5701 5697 5693 5688 5683 5679 5674 5669 5663 5657 5650 5643
5705 5706 5705 5705 5705 5704 5703 5701 5698 5694 5691 5686 5681 5677 5672 5667 5662 5655 5649 5643 5635 5627
5697 5697 5697 5697 5697 5696 5694 5691 5688 5683 5679 5675 5671 5666 5661 5654 5648 5642 5635 5627 5620 5610
5689 5690 5690 5690 5689 5687 5685 5682 5677 5673 5669 5665 5660 5654 5648 5641 5635 5628 5620 5612 5603 5593
5681 5683 5683 5683 5680 5678 5675 5672 5668 5664 5659 5654 5648 5642 5636 5629 5622 5614 5605 5596 5586 5577
5674 5675 5675 5674 5672 5669 5666 5663 5659 5654 5648 5642 5636 5630 5623 5616 5608 5599 5589 5579 5570 5560
5667 5668 5668 5666 5664 5661 5657 5653 5649 5643 5637 5630 5624 5617 5610 5603 5594 5584 5575 5564 5554 5542
5661 5661 5660 5658 5655 5652 5648 5643 5637 5631 5625 5619 5612 5604 5597 5588 5580 5570 5560 5549 5537 5524
5654 5654 5652 5650 5647 5643 5637 5632 5627 5621 5614 5607 5600 5592 5583 5574 5565 5555 5544 5533 5520 5506
5647 5646 5645 5642 5637 5632 5627 5622 5616 5610 5602 5595 5587 5579 5570 5560 5550 5539 5528 5515 5499 5485
5640 5638 5635 5632 5628 5623 5618 5611 5605 5598 5590 5582 5574 5565 5555 5546 5536 5525 5511 5495 5477 5462
5632 5630 5627 5623 5618 5613 5607 5600 5593 5585 5578 5570 5561 5552 5542 5532 5521 5508 5493 5476 5457 5439
5625 5622 5618 5613 5608 5602 5596 5590 5582 5574 5566 5557 5548 5539 5528 5515 5501 5487 5472 5454 5435 5416